Погода в Штраубинге

Германия     48°52′50″N   12°34′25″E
темп.,
°C
ветер,
м/с
пор.,
м/с
влажн.,
%
обл.,
%
осадки,
мм/ч
давл.,
гПа
погр.,
м
21 апреля, ср
ср2123:00+5ю11886 0.0 101610
02:00+4ююв11925 0.0 101710
05:00+3юв119510 0.0 101710
08:00+6ююв12915 0.0 1017137
11:00+11ююз23704 0.0 1016640
14:00+14зюз235831 1.1 10141403
17:00+14сз336145 2.4 10131181
20:00+9сз228473 4.6 101412
22 апреля, чт
чт2223:00+6с11871 0.5 101610
02:00+5сз119196 0.5 101710
05:00+4ссз2294100 0.0 101826
08:00+6ссз369096 0.1 1019336
11:00+8ссз46586 0.0 1021856
14:00+11сз463082 0.0 10211585
17:00+12сз46338 0.0 10201932
20:00+6сз38565 0.0 1023175
23 апреля, пт
пт2323:00+3с22723 0.0 102623
02:00+1ссз22785 0.0 102617
05:000ссз11875 0.0 102710
08:00+4зсз12735 0.0 1028215
11:00+9зсз34451 0.0 10271235
14:00+12сз34340 0.0 10251780
17:00+13сз34333 0.0 10242020
20:00+7ссз22570 0.0 102513
24 апреля, сб
сб2423:00+4ссв33674 0.0 102738
02:00+2ссв22785 0.0 102723
05:00+1св11855 0.0 102712
08:00+5в11695 0.0 1027144
11:00+11ююз11505 0.0 1025880
14:00+15зсз133827 0.0 10231505
17:00+15сз343643 0.0 10221802
20:00+9с325899 0.0 102331
25 апреля, вс
вс2523:00+7ссв51161100 0.0 1024336
02:00+4ссв247759 0.0 102586
05:00+2св11891 0.0 102615
08:00+5св11721 0.0 1026168
11:00+12в11531 0.0 1024982
14:00+15юв22435 0.0 10211460
17:00+15вюв12422 0.0 10191453
20:00+9ссв3667100 0.0 1018113